TimeIST,TemperatureF,Dew PointF,Humidity,Sea Level PressureIn,VisibilityMPH,Wind Direction,Wind SpeedMPH,Gust SpeedMPH,PrecipitationIn,Events,Conditions,WindDirDegrees,DateUTC
12:00 AM,59.0,59.0,100,30.04,0.3,Calm,Calm,-,N/A,Fog,Fog,0,2013-02-01 18:30:00
12:30 AM,59.0,59.0,100,30.04,0.2,Calm,Calm,-,N/A,Fog,Fog,0,2013-02-01 19:00:00
1:00 AM,59.0,59.0,100,30.04,0.2,Calm,Calm,-,N/A,Fog,Fog,0,2013-02-01 19:30:00
1:30 AM,59.0,59.0,100,30.04,0.2,Calm,Calm,-,N/A,Fog,Fog,0,2013-02-01 20:00:00
2:00 AM,57.2,57.2,100,30.04,0.2,WSW,4.6,-,N/A,Fog,Fog,250,2013-02-01 20:30:00
2:30 AM,57.2,57.2,100,30.04,0.2,West,3.5,-,N/A,Fog,Fog,270,2013-02-01 21:00:00
3:00 AM,57.2,57.2,100,30.04,0.2,WSW,4.6,-,N/A,Fog,Fog,250,2013-02-01 21:30:00
3:30 AM,57.2,57.2,100,30.01,0.2,Calm,Calm,-,N/A,Fog,Fog,0,2013-02-01 22:00:00
4:00 AM,57.2,57.2,100,30.01,0.2,Calm,Calm,-,N/A,Fog,Fog,0,2013-02-01 22:30:00
4:30 AM,57.2,57.2,100,30.01,0.2,Calm,Calm,-,N/A,Fog,Fog,0,2013-02-01 23:00:00
5:00 AM,57.2,57.2,100,30.01,0.2,Calm,Calm,-,N/A,Fog,Fog,0,2013-02-01 23:30:00
5:30 AM,57.2,57.2,100,30.01,0.2,SW,3.5,-,N/A,Fog,Fog,230,2013-02-02 00:00:00
6:00 AM,57.2,57.2,100,30.04,0.2,WSW,2.3,-,N/A,Fog,Fog,240,2013-02-02 00:30:00
6:30 AM,57.2,57.2,100,30.04,0.2,NNE,3.5,-,N/A,Fog,Fog,30,2013-02-02 01:00:00
7:00 AM,57.2,57.2,100,30.06,0.2,NNE,3.5,-,N/A,Fog,Fog,30,2013-02-02 01:30:00
7:30 AM,59.0,59.0,100,30.06,0.3,NNE,6.9,-,N/A,Fog,Fog,20,2013-02-02 02:00:00
8:00 AM,59.0,59.0,100,30.06,0.4,NNE,5.8,-,N/A,Fog,Shallow Fog,30,2013-02-02 02:30:00
8:30 AM,60.8,60.8,100,30.06,0.4,North,4.6,-,N/A,Fog,Shallow Fog,360,2013-02-02 03:00:00
9:00 AM,60.8,60.8,100,30.06,0.4,NNW,6.9,-,N/A,Fog,Shallow Fog,330,2013-02-02 03:30:00
9:30 AM,64.4,64.4,100,30.09,0.4,SSW,4.6,-,N/A,Fog,Shallow Fog,210,2013-02-02 04:00:00
10:30 AM,66.2,62.6,88,30.09,0.6,SW,3.5,-,N/A,,Scattered Clouds,230,2013-02-02 05:00:00
11:00 AM,66.2,62.6,88,30.09,0.6,West,3.5,-,N/A,,Scattered Clouds,270,2013-02-02 05:30:00
11:30 AM,68.0,62.6,83,30.09,0.6,WSW,4.6,-,N/A,,Mostly Cloudy,240,2013-02-02 06:00:00
12:00 PM,68.0,62.6,83,30.09,0.6,WNW,5.8,-,N/A,,Mostly Cloudy,290,2013-02-02 06:30:00
12:30 PM,68.0,62.6,83,30.06,0.7,WNW,5.8,-,N/A,,Mostly Cloudy,290,2013-02-02 07:00:00
1:00 PM,69.8,62.6,78,30.04,0.7,NW,5.8,-,N/A,,Mostly Cloudy,310,2013-02-02 07:30:00
1:30 PM,71.6,60.8,69,30.04,0.7,NW,5.8,-,N/A,,Mostly Cloudy,320,2013-02-02 08:00:00
2:00 PM,73.4,59.0,61,30.01,0.7,NNW,5.8,-,N/A,,Smoke,340,2013-02-02 08:30:00
2:30 PM,73.4,57.2,57,30.01,0.7,NNW,5.8,-,N/A,,Smoke,340,2013-02-02 09:00:00
3:00 PM,73.4,48.2,41,30.01,0.9,North,6.9,-,N/A,,Haze,10,2013-02-02 09:30:00
4:00 PM,73.4,46.4,38,29.98,1.6,NE,5.8,-,N/A,,Haze,40,2013-02-02 10:30:00
4:30 PM,73.4,48.2,41,29.98,1.6,NNE,4.6,-,N/A,,Haze,30,2013-02-02 11:00:00
5:30 PM,71.6,50.0,46,29.98,1.9,NNE,3.5,-,N/A,,Smoke,20,2013-02-02 12:00:00
6:00 PM,71.6,50.0,46,29.98,1.7,NNE,3.5,-,N/A,,Smoke,30,2013-02-02 12:30:00
6:30 PM,68.0,53.6,60,29.98,1.4,NNE,3.5,-,N/A,,Smoke,20,2013-02-02 13:00:00
7:00 PM,64.4,51.8,64,30.01,1.2,Calm,Calm,-,N/A,,Smoke,0,2013-02-02 13:30:00
7:30 PM,64.4,51.8,64,30.01,1.1,Calm,Calm,-,N/A,,Smoke,0,2013-02-02 14:00:00
8:30 PM,62.6,53.6,72,30.04,0.7,Calm,Calm,-,N/A,,Smoke,0,2013-02-02 15:00:00
9:00 PM,60.8,55.4,82,30.04,0.6,Calm,Calm,-,N/A,,Mist,0,2013-02-02 15:30:00
9:30 PM,60.8,55.4,82,30.04,0.6,Calm,Calm,-,N/A,,Mist,0,2013-02-02 16:00:00
10:00 PM,60.8,57.2,88,30.04,0.6,Calm,Calm,-,N/A,Fog,Shallow Fog,0,2013-02-02 16:30:00
11:00 PM,59.0,57.2,94,30.04,0.4,Calm,Calm,-,N/A,Fog,Shallow Fog,0,2013-02-02 17:30:00
11:30 PM,59.0,57.2,94,30.04,0.4,Calm,Calm,-,N/A,Fog,Shallow Fog,0,2013-02-02 18:00:00